Stations météo

réclame
Mon MeteoGroup
Malilla, Suède (2565): Température de l'air & dewpoint: 14.06.2018 07:00:00 - 20.06.2018 07:00:00 (CEST)Malilla, Suède (2565): Vitesse du vent & gusts: 14.06.2018 07:00:00 - 20.06.2018 07:00:00 (CEST)Malilla, Suède (2565): Direction du vent: 14.06.2018 07:00:00 - 20.06.2018 07:00:00 (CEST)Malilla, Suède (2565): reduced air pressure: 14.06.2018 07:00:00 - 20.06.2018 07:00:00 (CEST)Malilla, Suède (2565): visibility: 14.06.2018 07:00:00 - 20.06.2018 07:00:00 (CEST)Malilla, Suède (2565): Quantités de précipitations: 14.06.2018 07:00:00 - 20.06.2018 07:00:00 (CEST)
Date & Time tt [°C] td [°C] ff [km/h] ff [knt] fx [km/h] fx [knt] dd ppp [hPa] vv [km] rr [mm]
20.06.2018 07:00:00 12,2 6,6 20 11 36 19 SW 1016,5 16 0,0
20.06.2018 06:00:00 11,2 6,5 16 9 34 18 WSW 1016,3 14 0,0
20.06.2018 05:00:00 10,9 6,3 19 10 34 19 SW 1016,0 12 0,0
20.06.2018 04:00:00 11,1 5,8 19 10 34 19 WSW 1015,7 13 0,0
20.06.2018 03:00:00 11,3 6,0 20 11 39 21 SW 1015,5 16 0,0
20.06.2018 02:00:00 11,6 5,7 22 12 42 23 SW 1015,0 10 0,0
20.06.2018 01:00:00 11,8 5,2 21 12 42 23 SW 1015,0 11 0,0
20.06.2018 00:00:00 12,6 4,3 22 12 40 21 SW 1015,0 21 0,0
19.06.2018 23:00:00 13,3 4,2 17 9 40 21 WSW 1014,7 18 0,0
19.06.2018 22:00:00 14,3 4,0 17 9 42 23 SW 1014,1 17 0,0
19.06.2018 21:00:00 16,0 3,1 25 14 53 29 WSW 1013,4 18 0,0
19.06.2018 20:00:00 17,4 2,6 27 15 54 29 WSW 1013,0 20 0,0
19.06.2018 19:00:00 17,8 2,5 32 17 54 29 SW 1012,8 20 0,0
19.06.2018 18:00:00 20,1 2,1 24 13 55 30 SW 1011,9 19 0,0
19.06.2018 17:00:00 20,5 2,3 27 14 55 30 WSW 1011,6 20 0,0
19.06.2018 16:00:00 20,3 4,7 31 17 61 33 SW 1011,1 14 0,0
19.06.2018 15:00:00 20,2 6,2 33 18 61 33 SW 1011,0 17 0,0
19.06.2018 14:00:00 20,0 6,3 38 20 61 33 WSW 1010,6 17 0,0
19.06.2018 13:00:00 18,7 7,2 34 18 58 32 SW 1010,2 14 0,0
19.06.2018 12:00:00 18,8 8,2 30 16 56 30 SSW 1010,0 17 0,0
19.06.2018 11:00:00 17,7 8,5 28 15 49 26 SW 1010,3 16 0,0
19.06.2018 10:00:00 16,3 8,3 31 17 49 26 SW 1010,4 15 0,0
19.06.2018 09:00:00 14,8 8,5 24 13 44 24 SW 1010,3 16 0,0
19.06.2018 08:00:00 14,7 8,4 27 15 44 24 SW 1010,2 18 0,0
19.06.2018 07:00:00 14,9 9,9 24 13 44 24 SW 1010,1 19 0,0
19.06.2018 06:00:00 15,1 11,7 14 7 27 14 SW 1009,5 13 0,0
19.06.2018 05:00:00 15,3 11,9 11 6 27 15 S 1009,8 18 0,0
19.06.2018 04:00:00 15,1 12,1 14 7 27 15 S 1010,1 17 0,0
19.06.2018 03:00:00 14,8 12,4 11 6 29 16 S 1010,8 14 0,0
19.06.2018 02:00:00 15,6 12,6 13 7 29 16 S 1011,3 22 0,0
19.06.2018 01:00:00 16,8 11,2 12 6 23 13 S 1011,6 13 0,0
19.06.2018 00:00:00 16,6 11,1 10 6 26 14 S 1012,2 20 0,0
18.06.2018 23:00:00 16,9 10,7 14 7 26 14 S 1013,0 17 0,0
18.06.2018 22:00:00 17,3 10,2 13 7 29 15 S 1013,3 24 0,0
18.06.2018 21:00:00 17,8 9,2 10 5 33 18 SSW 1013,1 20 0,0
18.06.2018 20:00:00 18,5 9,0 16 9 36 19 SW 1013,3 19 0,0
18.06.2018 19:00:00 19,3 8,3 16 8 40 22 SW 1013,4 23 0,0
18.06.2018 18:00:00 19,2 7,6 20 11 40 22 SSW 1013,7 15 0,0
18.06.2018 17:00:00 19,6 7,3 23 12 41 22 SW 1013,9 18 0,0
18.06.2018 16:00:00 20,5 7,1 19 10 45 24 SW 1014,2 18 0,0
18.06.2018 15:00:00 20,1 7,1 18 10 45 24 SW 1014,3 25 0,0
18.06.2018 14:00:00 19,1 6,9 21 11 37 20 SW 1014,4 15 0,0
18.06.2018 13:00:00 19,0 7,1 16 9 30 16 SW 1014,4 18 0,0
18.06.2018 12:00:00 17,8 7,8 21 11 29 16 SW 1014,9 19 0,0
18.06.2018 11:00:00 16,6 7,8 15 8 30 16 SW 1015,1 16 0,0
18.06.2018 10:00:00 15,7 8,0 16 9 30 16 SW 1015,2 16 0,0
18.06.2018 09:00:00 15,4 7,4 16 9 29 16 SSW 1014,7 21 0,0
18.06.2018 08:00:00 14,7 8,4 13 7 24 13 SSW 1014,7 15 0,0
18.06.2018 07:00:00 14,3 9,9 10 5 17 9 SSW 1014,7 17 0,0
18.06.2018 06:00:00 11,8 10,2 6 4 10 5 S 1014,7 9 0,0
18.06.2018 05:00:00 9,0 8,4 0 0 8 5 N 1014,6 10 0,0
18.06.2018 04:00:00 9,3 8,7 4 2 8 5 SW 1014,7 15 0,0
18.06.2018 03:00:00 9,5 8,9 0 0 5 3 N 1014,6 11 0,0
18.06.2018 02:00:00 10,7 9,9 0 0 8 4 N 1014,1 12 0,0
18.06.2018 01:00:00 11,7 10,4 0 0 9 5 N 1014,0 16 0,0
18.06.2018 00:00:00 12,8 11,5 3 1 9 5 SSE 1013,7 10 0,0
17.06.2018 23:00:00 13,8 11,1 4 2 14 8 S 1013,2 23 0,0
17.06.2018 22:00:00 14,9 12,4 3 2 18 10 S 1012,9 16 0,0
17.06.2018 21:00:00 17,2 12,9 8 5 18 10 SSW 1012,2 17 0,0
17.06.2018 20:00:00 18,4 14,9 9 5 11 6 S 1011,4 15 0,0
17.06.2018 19:00:00 18,1 14,8 0 0 33 18 N 1011,2 16 0,0
17.06.2018 18:00:00 17,7 14,6 3 2 33 18 W 1011,4 16 1,6
17.06.2018 17:00:00 19,2 15,5 13 7 23 12 S 1010,7 18 0,0
17.06.2018 16:00:00 19,8 16,1 12 6 18 10 SSE 1010,2 16 0,0
17.06.2018 15:00:00 17,8 16,1 8 4 25 14 E 1011,0 18 0,0
17.06.2018 14:00:00 14,7 14,1 7 4 26 14 N 1011,4 13 6,7
17.06.2018 13:00:00 15,3 13,3 16 9 26 14 W 1012,0 19 0,0
17.06.2018 12:00:00 16,4 13,9 5 3 12 6 NNW 1012,6 17 0,0
17.06.2018 11:00:00 14,3 13,0 6 3 18 10 N 1013,5 17 1,0
17.06.2018 10:00:00 14,1 11,4 5 3 22 12 ENE 1014,1 10 0,5
17.06.2018 09:00:00 16,4 9,6 9 5 22 12 E 1013,8 17 0,0
17.06.2018 08:00:00 15,9 11,3 8 5 16 8 SE 1014,3 16 0,0
17.06.2018 07:00:00 14,7 11,1 5 3 8 4 E 1014,7 14 0,0
17.06.2018 06:00:00 12,5 9,3 0 0 8 4 N 1015,1 18 0,0
17.06.2018 05:00:00 11,9 8,6 3 1 8 4 ESE 1015,8 15 0,0
17.06.2018 04:00:00 10,4 8,7 0 0 5 3 N 1016,0 13 0,0
17.06.2018 03:00:00 11,2 8,4 0 0 5 3 N 1016,0 14 0,0
17.06.2018 02:00:00 11,8 7,9 2 1 7 4 W 1015,9 18 0,0
17.06.2018 01:00:00 12,5 8,2 0 0 9 5 N 1016,3 20 0,0
17.06.2018 00:00:00 15,1 7,6 4 2 14 8 SE 1016,5 12 0,0
16.06.2018 23:00:00 16,2 7,7 6 3 15 8 ESE 1016,2 20 0,0
16.06.2018 22:00:00 17,7 7,7 9 5 19 10 ESE 1016,0 18 0,0
16.06.2018 21:00:00 19,0 7,7 10 6 29 16 ESE 1015,8 16 0,0
16.06.2018 20:00:00 19,6 8,0 9 5 29 16 E 1015,9 20 0,0
16.06.2018 19:00:00 21,2 8,1 11 6 18 10 ESE 1015,7 18 0,0
16.06.2018 18:00:00 22,2 4,3 7 4 15 8 SSE 1015,8 15 0,0
16.06.2018 17:00:00 22,6 4,6 4 2 18 10 ENE 1016,0 20 0,0
16.06.2018 16:00:00 21,9 4,9 7 4 22 12 E 1016,3 19 0,0
16.06.2018 15:00:00 22,3 5,7 8 4 23 13 SSW 1016,5 22 0,0
16.06.2018 14:00:00 21,5 5,0 10 5 23 13 SW 1017,0 22 0,0
16.06.2018 13:00:00 21,0 4,5 9 5 16 9 E 1017,3 20 0,0
16.06.2018 12:00:00 20,2 5,0 9 5 17 9 SE 1017,6 18 0,0
16.06.2018 11:00:00 19,8 5,4 10 5 20 11 SSW 1017,6 21 0,0
16.06.2018 10:00:00 19,5 5,9 11 6 17 9 SSE 1017,7 21 0,0
16.06.2018 09:00:00 18,1 6,6 5 3 14 8 S 1017,9 20 0,0
16.06.2018 08:00:00 17,3 8,4 2 1 11 6 SSW 1018,2 22 0,0
16.06.2018 07:00:00 13,9 7,4 4 2 11 6 SW 1018,2 15 0,0
16.06.2018 06:00:00 10,4 6,4 4 2 6 4 SW 1018,3 17 0,0
16.06.2018 05:00:00 6,8 4,7 0 0 6 3 N 1018,3 16 0,0
16.06.2018 04:00:00 6,8 4,4 3 1 6 3 W 1018,2 17 0,0
16.06.2018 03:00:00 6,7 4,1 4 2 6 3 WSW 1017,8 16 0,0
16.06.2018 02:00:00 7,9 4,5 0 0 9 5 N 1017,4 17 0,0
16.06.2018 01:00:00 9,3 5,7 0 0 13 7 N 1017,1 22 0,0
16.06.2018 00:00:00 10,4 5,4 5 3 13 7 WSW 1016,8 22 0,0
15.06.2018 23:00:00 11,9 6,0 5 3 14 7 WSW 1016,4 17 0,0
15.06.2018 22:00:00 15,1 4,8 4 2 21 11 WSW 1015,7 16 0,0
15.06.2018 21:00:00 18,7 3,3 10 5 27 15 SW 1014,9 21 0,0
15.06.2018 20:00:00 21,0 3,7 11 6 27 15 WSW 1014,6 18 0,0
15.06.2018 19:00:00 22,1 4,6 14 7 30 16 SW 1014,2 16 0,0
15.06.2018 18:00:00 22,8 5,7 15 8 30 16 SSW 1014,0 21 0,0
15.06.2018 17:00:00 22,5 4,5 16 8 30 16 SSW 1014,0 16 0,0
15.06.2018 16:00:00 23,1 4,1 13 7 29 16 SW 1013,8 22 0,0
15.06.2018 15:00:00 22,8 4,8 9 5 35 19 SW 1014,0 22 0,0
15.06.2018 14:00:00 22,0 5,8 14 8 35 19 SW 1014,0 22 0,0
15.06.2018 13:00:00 21,8 6,1 16 9 30 16 SW 1013,8 17 0,0
15.06.2018 12:00:00 21,1 6,6 16 9 30 16 SW 1013,7 16 0,0
15.06.2018 11:00:00 19,9 6,9 18 10 28 15 WSW 1013,4 20 0,0
15.06.2018 10:00:00 19,2 7,0 13 7 31 17 WSW 1013,2 21 0,0
15.06.2018 09:00:00 17,7 8,5 13 7 31 17 WSW 1012,9 20 0,0
15.06.2018 08:00:00 16,6 10,0 14 8 27 15 WSW 1012,3 18 0,0
15.06.2018 07:00:00 15,8 11,4 13 7 26 14 WSW 1012,1 17 0,0
15.06.2018 06:00:00 14,5 12,0 9 5 27 15 SW 1011,5 15 0,0
15.06.2018 05:00:00 14,1 12,1 11 6 27 15 SW 1011,1 11 0,0
15.06.2018 04:00:00 15,8 11,0 12 6 27 15 S 1010,4 20 0,0
15.06.2018 03:00:00 16,0 11,2 14 7 27 14 S 1010,0 17 0,0
15.06.2018 02:00:00 16,6 11,2 16 9 27 14 SSW 1010,2 22 0,0
15.06.2018 01:00:00 16,9 11,0 10 5 24 13 S 1009,9 20 0,0
15.06.2018 00:00:00 17,0 10,6 10 5 19 11 SSE 1009,8 19 0,0
14.06.2018 23:00:00 17,6 10,2 10 5 18 10 SSE 1009,6 16 0,0
14.06.2018 22:00:00 18,1 9,4 9 5 17 9 S 1009,7 18 0,0
14.06.2018 21:00:00 18,5 9,0 9 5 23 13 S 1009,5 21 0,0
14.06.2018 20:00:00 19,3 8,6 14 7 31 17 SSW 1009,3 16 0,0
14.06.2018 19:00:00 19,8 7,8 16 9 32 17 SW 1009,1 23 0,0
14.06.2018 18:00:00 21,2 7,1 19 11 32 17 SW 1009,2 20 0,0
14.06.2018 17:00:00 21,5 7,0 18 10 30 16 SW 1009,4 19 0,0
14.06.2018 16:00:00 21,8 6,5 16 8 31 17 SSW 1009,6 17 0,0
14.06.2018 15:00:00 20,6 6,5 19 10 31 17 SW 1010,0 16 0,0
14.06.2018 14:00:00 20,2 8,2 21 11 33 18 SW 1010,4 19 0,0
14.06.2018 13:00:00 18,9 8,5 19 10 33 18 SSW 1010,6 18 0,0
14.06.2018 12:00:00 18,7 8,6 16 9 30 16 SSW 1010,7 16 0,0
14.06.2018 11:00:00 18,2 8,5 14 7 23 12 SW 1010,8 16 0,0
14.06.2018 10:00:00 17,1 8,3 12 6 23 12 SW 1011,0 15 0,0
14.06.2018 09:00:00 16,0 8,5 10 6 20 11 SSW 1011,1 18 0,0
14.06.2018 08:00:00 14,4 9,2 13 7 20 11 SSW 1011,4 18 0,0
14.06.2018 07:00:00 14,1 9,9 10 5 20 11 W 1011,3 17 0,0

tt = Température de l'air
td = dewpoint
ff = Vitesse du vent
fx = gusts
dd = Direction du vent
ppp = reduced air pressure
vv = visibility
rr = Quantités de précipitations

stations d'obs. à proximité